Location: Unspecified
(49.2170°N, 0.0000°E)
Time: 13:21:04
(UTC+00:00)

Vanguard 3 - Pass Details

Date: 22 January 2021
Orbit: 508 x 3261 km, 33.3° (Epoch: 28 February)

Event Time Altitude Azimuth Distance (km) Brightness Sun altitude
Rises 06:34:09 0° 250° (WSW) 4,384 - -11.2°
Exits shadow 06:34:51 - 248° (WSW) 4,208 10.3 -11.1°
Reaches altitude 10° 06:36:54 10° 242° (WSW) 3,729 10.1 -10.7°
Maximum altitude 06:46:07 38° 179° (S) 3,023 10.2 -9.3°
Drops below altitude 10° 07:00:30 10° 121° (ESE) 5,788 13.2 -7.1°
Sets 07:06:03 0° 115° (ESE) 7,053 14.8 -6.3°
